BAW845 EPWA-EGLL

Flight info

Callsign BAW845
Flight time N/A
Altitude 36000
Route DCT LOLSI T174 INDIG DCT SUBIX DCT PENEK DCT HLZ DCT AMSAN L980 RKN DCT NIGUG DCT ABNED L980 LOGAN LOGAN2H
Aircraft A21N/M-SDE3FGHIJ1LRWXYZ/SB1G1

Departure

Time N/A
Airport Warsaw Chopin Airport (EPWA)

Arrival

Time 2026-05-04 19:06
Airport London Heathrow Airport (EGLL)
Time Latitude Longitude Altitude Speed Heading
2026-05-04 18:54 51.61205 -0.19000 8052 ft 241 kts 261°
2026-05-04 18:54 51.60952 -0.21599 8056 ft 237 kts 261°
2026-05-04 18:55 51.60699 -0.24204 8002 ft 235 kts 261°
2026-05-04 18:55 51.60181 -0.29435 7555 ft 237 kts 261°
2026-05-04 18:55 51.59920 -0.32044 7313 ft 235 kts 261°
2026-05-04 18:56 51.59658 -0.34664 7073 ft 237 kts 261°
2026-05-04 18:56 51.59397 -0.37280 6990 ft 236 kts 261°
2026-05-04 18:56 51.59136 -0.39889 6994 ft 235 kts 261°
2026-05-04 18:56 51.58877 -0.42482 7006 ft 237 kts 261°
2026-05-04 18:57 51.58614 -0.45092 7020 ft 234 kts 261°
2026-05-04 18:57 51.58354 -0.47666 6998 ft 229 kts 261°
2026-05-04 18:57 51.58098 -0.50187 6634 ft 229 kts 261°
2026-05-04 18:57 51.57840 -0.52728 6173 ft 231 kts 261°
2026-05-04 18:58 51.57578 -0.55279 5745 ft 232 kts 261°
2026-05-04 18:58 51.57312 -0.57832 5358 ft 231 kts 261°
2026-05-04 18:58 51.57043 -0.60393 4926 ft 233 kts 261°
2026-05-04 18:58 51.56766 -0.62979 4462 ft 235 kts 261°
2026-05-04 18:59 51.56480 -0.65573 4034 ft 237 kts 261°
2026-05-04 18:59 51.56190 -0.68202 3646 ft 238 kts 261°
2026-05-04 18:59 51.55895 -0.70830 3356 ft 240 kts 261°
2026-05-04 18:59 51.55594 -0.73443 3085 ft 235 kts 261°
2026-05-04 19:00 51.55292 -0.75937 2987 ft 217 kts 257°
2026-05-04 19:00 51.54596 -0.77930 2983 ft 200 kts 223°
2026-05-04 19:00 51.53382 -0.78896 2974 ft 195 kts 188°
2026-05-04 19:00 51.52026 -0.79054 2990 ft 195 kts 178°
2026-05-04 19:01 51.50770 -0.78439 2980 ft 188 kts 142°
2026-05-04 19:01 51.49897 -0.76963 3001 ft 184 kts 126°
2026-05-04 19:01 51.49083 -0.75343 3002 ft 184 kts 126°
2026-05-04 19:01 51.48307 -0.73797 2986 ft 179 kts 123°
2026-05-04 19:02 51.47851 -0.71979 2939 ft 175 kts 98°
2026-05-04 19:02 51.47724 -0.70048 2787 ft 172 kts 90°
2026-05-04 19:02 51.47699 -0.68131 2593 ft 171 kts 89°
2026-05-04 19:02 51.47693 -0.66218 2369 ft 172 kts 88°
2026-05-04 19:03 51.47696 -0.64316 2114 ft 170 kts 87°
2026-05-04 19:03 51.47702 -0.62427 1878 ft 164 kts 86°
2026-05-04 19:03 51.47707 -0.60754 1649 ft 135 kts 86°
2026-05-04 19:03 51.47713 -0.59301 1440 ft 129 kts 86°
2026-05-04 19:04 51.47719 -0.57852 1293 ft 128 kts 86°
2026-05-04 19:04 51.47724 -0.56420 1113 ft 128 kts 86°
2026-05-04 19:04 51.47729 -0.54984 929 ft 128 kts 85°
2026-05-04 19:04 51.47734 -0.53554 751 ft 128 kts 85°
2026-05-04 19:05 51.47739 -0.52136 575 ft 128 kts 86°
2026-05-04 19:05 51.47742 -0.50702 408 ft 128 kts 87°
2026-05-04 19:05 51.47752 -0.49266 239 ft 130 kts 88°
2026-05-04 19:05 51.47748 -0.47831 106 ft 125 kts 86°
2026-05-04 19:06 51.47758 -0.46591 98 ft 88 kts 89°
2026-05-04 19:06 51.47758 -0.45849 92 ft 56 kts 89°
2026-05-04 19:06 51.47763 -0.45377 91 ft 26 kts 86°
2026-05-04 19:06 51.47738 -0.45210 93 ft 14 kts 133°
2026-05-04 19:07 51.47651 -0.45173 92 ft 5 kts 181°
2026-05-04 19:07 51.47648 -0.45174 92 ft 1 kts 181°
2026-05-04 19:07 51.47620 -0.45179 92 ft 6 kts 203°
2026-05-04 19:07 51.47597 -0.45249 92 ft 9 kts 267°
2026-05-04 19:08 51.47597 -0.45364 94 ft 12 kts 270°
2026-05-04 19:08 51.47597 -0.45490 91 ft 12 kts 270°
2026-05-04 19:08 51.47596 -0.45643 91 ft 15 kts 269°
2026-05-04 19:08 51.47596 -0.45818 95 ft 12 kts 269°
2026-05-04 19:09 51.47595 -0.45949 95 ft 13 kts 270°
2026-05-04 19:09 51.47595 -0.46085 93 ft 11 kts 270°
2026-05-04 19:09 51.47595 -0.46219 93 ft 13 kts 269°
2026-05-04 19:09 51.47594 -0.46381 92 ft 16 kts 269°
2026-05-04 19:10 51.47593 -0.46570 92 ft 18 kts 269°
2026-05-04 19:10 51.47592 -0.46765 92 ft 14 kts 269°
2026-05-04 19:10 51.47583 -0.46933 93 ft 16 kts 269°
2026-05-04 19:10 51.47582 -0.47125 92 ft 18 kts 269°
2026-05-04 19:11 51.47582 -0.47342 95 ft 20 kts 269°
2026-05-04 19:11 51.47581 -0.47585 93 ft 22 kts 269°
2026-05-04 19:11 51.47580 -0.47836 95 ft 15 kts 269°
2026-05-04 19:11 51.47579 -0.48001 93 ft 16 kts 270°
2026-05-04 19:12 51.47579 -0.48184 95 ft 17 kts 270°
2026-05-04 19:12 51.47544 -0.48473 93 ft 11 kts 192°
2026-05-04 19:12 51.47460 -0.48475 91 ft 13 kts 180°
2026-05-04 19:13 51.47369 -0.48474 91 ft 14 kts 180°
2026-05-04 19:13 51.47269 -0.48473 91 ft 15 kts 181°
2026-05-04 19:13 51.47183 -0.48473 91 ft 9 kts 180°
2026-05-04 19:13 51.47133 -0.48502 93 ft 9 kts 254°
2026-05-04 19:14 51.47134 -0.48578 91 ft 6 kts 272°
2026-05-04 19:14 51.47134 -0.48603 91 ft 0 kts 271°